{"data":{"norad_id":60439,"intl_designator":"2024-144Q","name":"STARLINK-32231","alt_names":[],"object_type":"PAYLOAD","status":"ACTIVE","operator":null,"country":"US","launch_date":"2024-08-12","launch_site_code":"AFETR","launch_vehicle":null,"mission":null,"orbit_class":"UNKNOWN","rcs_meters":null,"size_class":null,"mass_kg":null,"dimensions":null,"purposes":["comms"],"wikipedia_slug":null,"has_3d_model":false,"image_url":null,"decayed_at":null,"tle_current":{"epoch":"2026-05-24T22:25:55.202016Z","epoch_age_seconds":76634,"freshness":"FRESH","line1":"1 60439U 24144Q   26144.93466669 -.00002211  00000+0 -54354-4 0  9995","line2":"2 60439  53.1607 222.1949 0001590  95.2511 264.8673 15.34374057100098","mean_motion":15.34374057,"eccentricity":0.000159,"inclination_deg":53.1607,"raan_deg":222.1949,"arg_perigee_deg":95.2511,"mean_anomaly_deg":264.8673,"bstar":-5.4354e-5,"rev_number":10009,"period_min":93.849344847206,"perigee_km":461.69264349824,"apogee_km":463.86805521533,"semimajor_km":6840.9173493568,"source":"CELESTRAK","updated_at":"2026-05-25T13:38:19.275630Z"}}}